TimeICT,TemperatureF,Dew PointF,Humidity,Sea Level PressureIn,VisibilityMPH,Wind Direction,Wind SpeedMPH,Gust SpeedMPH,PrecipitationIn,Events,Conditions,WindDirDegrees,DateUTC
12:00 AM,82.4,68.0,62,29.80,5.6,SW,6.9,-,N/A,,Partly Cloudy,220,2013-02-26 17:00:00
12:30 AM,82.4,68.0,62,29.80,5.6,SW,5.8,-,N/A,,Partly Cloudy,220,2013-02-26 17:30:00
1:00 AM,82.4,69.8,66,29.80,5.6,SW,6.9,-,N/A,,Partly Cloudy,220,2013-02-26 18:00:00
6:00 AM,80.6,69.8,70,29.80,6.2,SSW,4.6,-,N/A,,Scattered Clouds,210,2013-02-26 23:00:00
6:30 AM,80.6,69.8,70,29.80,6.2,SSW,4.6,-,N/A,,Partly Cloudy,210,2013-02-26 23:30:00
7:00 AM,80,72,69,29.88,6,Calm,Calm,,,,Mostly Cloudy,,2013-02-27 00:00:00
7:00 AM,82.4,69.8,66,29.83,5.6,SSW,5.8,-,N/A,,Scattered Clouds,210,2013-02-27 00:00:00
7:30 AM,82.4,69.8,66,29.83,5.6,South,8.1,-,N/A,,Scattered Clouds,190,2013-02-27 00:30:00
8:00 AM,84.2,69.8,62,29.86,6.2,SSW,6.9,-,N/A,,Scattered Clouds,200,2013-02-27 01:00:00
8:30 AM,84.2,69.8,62,29.86,6.2,SSW,8.1,-,N/A,,Scattered Clouds,210,2013-02-27 01:30:00
9:00 AM,86.0,69.8,58,29.86,6.2,South,10.4,-,N/A,,Partly Cloudy,190,2013-02-27 02:00:00
9:30 AM,87.8,69.8,55,29.86,6.2,South,10.4,-,N/A,,Partly Cloudy,190,2013-02-27 02:30:00
10:00 AM,87.8,69.8,55,29.86,6.2,SE,8.1,-,N/A,,Partly Cloudy,140,2013-02-27 03:00:00
10:30 AM,89.6,68.0,49,29.86,6.2,SE,6.9,-,N/A,,Partly Cloudy,140,2013-02-27 03:30:00
11:00 AM,89.6,68.0,49,29.86,6.2,SSE,9.2,-,N/A,,Partly Cloudy,150,2013-02-27 04:00:00
11:30 AM,91.4,68.0,46,29.83,6.2,South,8.1,-,N/A,,Partly Cloudy,170,2013-02-27 04:30:00
12:00 PM,91.4,69.8,49,29.83,6.2,ESE,4.6,-,N/A,,Partly Cloudy,110,2013-02-27 05:00:00
12:30 PM,93.2,68.0,44,29.80,6.2,SSE,8.1,-,N/A,,Scattered Clouds,160,2013-02-27 05:30:00
1:00 PM,93.2,69.8,46,29.80,6.2,ESE,8.1,-,N/A,,Scattered Clouds,110,2013-02-27 06:00:00
1:30 PM,95.0,66.2,39,29.77,6.2,WSW,5.8,-,N/A,,Scattered Clouds,240,2013-02-27 06:30:00
2:00 PM,93.2,66.2,41,29.74,6.2,SSE,5.8,-,N/A,,Scattered Clouds,150,2013-02-27 07:00:00
2:30 PM,95.0,66.2,39,29.74,6.2,East,5.8,-,N/A,,Scattered Clouds,90,2013-02-27 07:30:00
3:00 PM,95.0,64.4,36,29.71,6.2,SSE,6.9,-,N/A,,Scattered Clouds,150,2013-02-27 08:00:00
3:30 PM,96.8,64.4,34,29.71,6.2,SSE,10.4,-,N/A,,Scattered Clouds,150,2013-02-27 08:30:00
4:00 PM,96.8,64.4,34,29.71,6.2,SSE,4.6,-,N/A,,Scattered Clouds,150,2013-02-27 09:00:00
4:30 PM,95.0,64.4,36,29.71,6.2,East,3.5,-,N/A,,Scattered Clouds,90,2013-02-27 09:30:00
5:00 PM,95.0,66.2,39,29.71,6.2,SSE,8.1,-,N/A,,Scattered Clouds,150,2013-02-27 10:00:00
5:30 PM,93.2,68.0,44,29.71,6.2,SSE,9.2,-,N/A,,Scattered Clouds,150,2013-02-27 10:30:00
6:00 PM,91.4,68.0,46,29.71,5.6,SSE,9.2,-,N/A,,Partly Cloudy,150,2013-02-27 11:00:00
6:30 PM,89.6,68.0,49,29.71,5.6,SSE,8.1,-,N/A,,Partly Cloudy,150,2013-02-27 11:30:00
7:00 PM,89.6,69.8,52,29.71,5.6,SSE,6.9,-,N/A,,Partly Cloudy,150,2013-02-27 12:00:00
7:30 PM,89.6,69.8,52,29.74,5.6,SSW,6.9,-,N/A,,Partly Cloudy,210,2013-02-27 12:30:00
8:00 PM,87.8,69.8,55,29.74,5.6,South,8.1,-,N/A,,Partly Cloudy,180,2013-02-27 13:00:00
8:30 PM,87.8,69.8,55,29.77,5.6,South,8.1,-,N/A,,Partly Cloudy,170,2013-02-27 13:30:00
9:00 PM,87.8,69.8,55,29.77,5.6,SSE,5.8,-,N/A,,Partly Cloudy,160,2013-02-27 14:00:00
9:30 PM,86.0,69.8,58,29.77,5.6,SSE,9.2,-,N/A,,Partly Cloudy,160,2013-02-27 14:30:00
10:00 PM,84.2,69.8,62,29.80,5.6,SSE,9.2,-,N/A,,Partly Cloudy,160,2013-02-27 15:00:00
10:30 PM,82.4,69.8,66,29.77,5.6,SSE,8.1,-,N/A,,Partly Cloudy,160,2013-02-27 15:30:00
11:00 PM,82.4,71.6,70,29.80,5.6,SSE,9.2,-,N/A,,Partly Cloudy,160,2013-02-27 16:00:00
11:30 PM,82.4,71.6,70,29.80,5.6,SSE,9.2,-,N/A,,Partly Cloudy,160,2013-02-27 16:30:00